Regional Weather Roundup
Issued by NWS

Home | Current Version | Previous Version | Text Only | Print | Product List | Glossary Off
Versions: 1 2 3 4 5 6 7 8 9 10 11 12 13 14 15 16 17 18 19 20 21 22 23 24 25 26 27 28 29 30 31 32 33 34 35 36 37 38 39 40 41 42 43 44 45 46 47 48 49 50

000
ASUS43 KLOT 270009
RWRIL

ILLINOIS REGIONAL WEATHER ROUNDUP
NATIONAL WEATHER SERVICE CHICAGO/ROMEOVILLE IL
700 PM CDT FRI AUG 26 2016

NOTE: "FAIR" INDICATES FEW OR NO CLOUDS BELOW 12,000 FEET WITH NO
SIGNIFICANT WEATHER AND/OR OBSTRUCTIONS TO VISIBILITY.

* THESE STATIONS ARE NOT UNDER NWS QUALITY CONTROL. THEY ALSO MAY NOT
  REPORT WEATHER SUCH AS PRECIPITATION OR FOG.

ILZ001-002-007-009-015-016-024-270100-
NORTHWEST ILLINOIS

CITY           SKY/WX    TMP DP  RH WIND       PRES   REMARKS
MOLINE         CLOUDY    77  64  64 NE8       30.08R
6HR MIN TEMP:  75; 6HR MAX TEMP:  80;

STERLING*      MOCLDY    73  66  78 NE5       30.10S
SAVANNA*       MOCLDY    73  64  73 NE6       30.11S
$$

ILZ003-004-008-010-011-017-018-270100-
NORTH CENTRAL ILLINOIS

CITY           SKY/WX    TMP DP  RH WIND       PRES   REMARKS
ROCKFORD       MOCLDY    76  61  59 NE6       30.11F
6HR MIN TEMP:  75; 6HR MAX TEMP:  80;

FREEPORT*      MOCLDY    71  63  77 CALM      30.14S
ROCHELLE*      PTCLDY    73  65  74 NE5       30.11S
DE KALB*       CLEAR     74  66  76 NE3       30.12S
$$

ILZ005-006-012>014-019>023-270100-
NORTHEAST ILLINOIS

CITY           SKY/WX    TMP DP  RH WIND       PRES   REMARKS
CHICAGO-OHARE  PTCLDY    74  61  63 NE9       30.11S
6HR MIN TEMP:  74; 6HR MAX TEMP:  81;

CHICAGO-MIDWAY MOCLDY    76  62  62 NE8       30.11F
6HR MIN TEMP:  76; 6HR MAX TEMP:  81;

AURORA         MOCLDY    78  65  63 E9        30.10F HX  80
6HR MIN TEMP:  78; 6HR MAX TEMP:  83;

LANSING*       CLOUDY    73  67  80 NE8       30.12R
JOLIET*        CLOUDY    76  67  73 E8        30.10F
WAUKEGAN       PTCLDY    70  61  73 E6        30.12S
6HR MIN TEMP:  70; 6HR MAX TEMP:  76;

DUPAGE AIRPORT PTCLDY    75  61  61 E7        30.10F
6HR MIN TEMP:  75; 6HR MAX TEMP:  82;

KANKAKEE*      CLOUDY    76  70  82 NE6       30.10R
WHEELING       CLEAR     72  61  68 NE8       30.12F
6HR MIN TEMP:  72; 6HR MAX TEMP:  79;

MORRIS*        PTCLDY    76  69  78 E5        30.08F
ROMEOVILLE*    MOCLDY    73  67  80 E8        30.10F
NORTHERLY ISL    N/A     72  64  76 NE6         N/A
$$

LMZ740>746-270100-
SOUTHERN LAKE MICHIGAN

STATION/POSITION SKY/WX   TEMP    WIND        PRES    VSBY  WAVE
                          AIR SEA DIR/SP/G                  HT/PER
                          (F)     (DEG/KT/KT) (MB)    (MI)  (FT/S)
SOUTHERN BUOY              71 75   50/  6/  8 1019.9F         1
WILMETTE HARBOR            72 72   70/ 10/ 12   N/A           1/ 3
HARRISON CRIB              73      50/  9/ 10   N/A
BURNHAM HARBOR             72      10/  4/  7   N/A
CALUMET HARBOR             73      30/  5/  9 1019.5F
BURNS HARBOR               74      60/ 12/ 14 1020.0F
MICHIGAN CITY              73      20/ 13/ 14   N/A
MICHIGAN CITY 6N           74 75   50/ 12/ 14   N/A           2/ 4
ST. JOSEPH                 73 75   30/ 14/ 16 1019.5F         2/ 3
$$

ILZ025>027-034>036-040-047-049-050-058-095>099-270100-
WEST-CENTRAL ILLINOIS

CITY           SKY/WX    TMP DP  RH WIND       PRES   REMARKS
QUINCY         CLOUDY    78  74  87 E6        30.04S HX  81
GALESBURG*     CLOUDY    76  67  72 E6        30.08S
MACOMB*        CLOUDY    76  71  84 E5        30.08S
JACKSONVILLE*  LGT RAIN  77  74  88 NE5       30.05S
PITTSFIELD*    CLOUDY    78  75  90 E3        30.05S HX  80
$$

ILZ028>032-037-038-041>044-048-051>054-059>061-270100-
CENTRAL ILLINOIS

CITY           SKY/WX    TMP DP  RH WIND       PRES   REMARKS
PONTIAC        CLOUDY    77  72  82 E5        30.09F
BLOOMINGTON    CLOUDY    76  72  87 E7        30.10R
DECATUR        LGT RAIN  73  71  93 SE6       30.07F
PEORIA         CLOUDY    77  71  82 E7        30.07S
6HR MIN TEMP:  76; 6HR MAX TEMP:  81; 6HR PCP: TRACE;

LACON*         CLOUDY    76  66  71 CALM      30.07S
LINCOLN*       CLOUDY    76  71  85 S9        30.08R
SPRINGFIELD    CLOUDY    78  71  79 SE8       30.07R HX  80
6HR MIN TEMP:  78; 6HR MAX TEMP:  83; 6HR PCP: TRACE;

TAYLORVILLE    CLOUDY    73  71  94 SE3       30.08R
6HR MIN TEMP:  72; 6HR MAX TEMP:  85; 6HR PCP:  0.32;

$$

ILZ033-039-045-046-055>057-062-063-270100-
EAST-CENTRAL ILLINOIS

CITY           SKY/WX    TMP DP  RH WIND       PRES   REMARKS
CHAMPAIGN      LGT RAIN  72  70  93 W6        30.10R
RANTOUL*       RAIN      75  73  93 SW6       30.11R
MATTOON        CLOUDY    73  69  87 N3        30.08R
PARIS*         CLOUDY    73  72  98 CALM      30.10R THUNDER
$$

ILZ079-100>102-270100-
SOUTHWEST ILLINOIS

CITY           SKY/WX    TMP DP  RH WIND       PRES   REMARKS
ALTON          CLOUDY    75  70  83 SE7       30.05R
BELLEVILLE     CLOUDY    77  70  78 SE3       30.05S THUNDER
CAHOKIA*       CLOUDY    81  70  69 SE7       30.04S HX  84
SPARTA*        MOCLDY    80  73  79 E5        30.08R HX  85
$$

ILZ064>066-069>071-074>076-080>082-084>086-088>090-092>094-270100-
SOUTH-CENTRAL ILLINOIS

CITY           SKY/WX    TMP DP  RH WIND       PRES   REMARKS
CARBONDALE     CLOUDY    79  75  87 CALM      30.07R HX  83
6HR MIN TEMP:  70; 6HR MAX TEMP:  85; 6HR PCP:  0.18;

CAIRO*         RAIN      76  74  95 S12G22    30.10R
EFFINGHAM*     CLOUDY    74  74 100 NW3       30.09S
MARION         CLOUDY    82  75  78 E5        30.07S HX  89
MT. VERNON     CLOUDY    82  70  65 CALM      30.07S HX  86
CENTRALIA*     MOCLDY    80  76  89 CALM      30.06S HX  85
SALEM*         PTCLDY    79  74  83 CALM      30.07R HX  83
METROPOLIS*    LGT RAIN  80  77  92 W3        30.07S HX  85
$$

ILZ067-068-072-073-078-083-087-091-270100-
SOUTHEAST ILLINOIS

CITY           SKY/WX    TMP DP  RH WIND       PRES   REMARKS
LAWRENCEVILLE  PTCLDY    81  73  76 N8        30.07R HX  86
FLORA*         CLOUDY    80  74  83 N3        30.07R HX  84
FAIRFIELD*     PTCLDY    78  74  88 CALM      30.06S HX  81
HARRISBURG*    CLOUDY    80  75  86 CALM      30.07S HX  84
ROBINSON*      PTCLDY    76  73  90 CALM      30.08R
CARMI*         CLOUDY    78  74  90 NW3       30.06S
$$

ABBREVIATIONS USED IN REMARKS
   TC - TEMPERATURE IN CELSIUS
  WCI - WIND CHILL INDEX
   HX - HEAT INDEX
  VSB - VISIBILITY
$$





USA.gov is the U.S. government's official web portal to all federal, state and local government web resources and services.